Date,TemperatureHighF,TemperatureAvgF,TemperatureLowF,DewpointHighF,DewpointAvgF,DewpointLowF,HumidityHigh,HumidityAvg,HumidityLow,PressureMaxIn,PressureMinIn,WindSpeedMaxMPH,WindSpeedAvgMPH,GustSpeedMaxMPH,PrecipitationSumIn
2013-1-2,27,21,13,16,13,10,90,71,54,0.00,40.00,6,2,8,0.00
2013-1-3,34,20,3,27,14,1,93,76,51,0.00,40.00,12,3,14,0.00
2013-1-4,36,32,25,28,24,18,78,70,60,0.00,40.00,14,7,21,0.00
2013-1-5,41,31,17,30,23,16,93,71,54,0.00,40.00,5,2,21,0.00
2013-1-6,42,38,32,37,31,27,94,77,66,0.00,40.00,8,3,10,0.00
2013-1-7,38,32,25,32,28,21,90,80,63,0.00,40.00,7,3,10,0.00
2013-1-8,48,31,18,34,26,18,98,82,51,0.00,40.00,4,1,10,0.00
2013-1-9,51,40,25,43,34,25,99,81,62,0.00,40.00,11,3,15,0.00
2013-1-10,44,38,27,34,31,27,99,76,59,0.00,40.00,4,1,15,0.00
2013-1-11,63,50,41,59,41,32,100,74,37,0.00,40.00,8,3,12,0.00
2013-1-12,65,59,50,63,47,32,100,71,34,0.00,40.00,7,2,12,0.00
2013-1-13,71,66,50,63,58,46,98,80,68,0.00,40.00,12,4,21,0.00
2013-1-14,49,38,30,46,32,23,98,78,63,0.00,40.00,10,3,21,0.00
2013-1-15,33,29,22,25,22,21,89,73,60,0.00,40.00,4,1,10,0.00
2013-1-16,34,31,30,32,28,21,99,85,67,0.00,40.00,6,2,10,0.00
2013-1-17,36,33,30,30,27,19,84,76,63,0.00,40.00,8,2,12,0.00
2013-1-18,36,27,17,21,15,9,75,59,46,0.00,40.00,9,4,14,0.00
2013-1-19,55,45,35,30,23,18,60,43,24,0.00,40.00,15,7,19,0.00
2013-1-20,51,37,24,36,21,12,63,51,41,0.00,40.00,17,9,24,0.00
2013-1-21,29,23,13,27,16,0,98,73,45,0.00,40.00,13,5,24,0.00
2013-1-22,18,12,4,9,3,0,84,66,51,0.00,40.00,12,5,17,0.00
2013-1-23,23,11,-1,18,5,-4,89,75,47,0.00,40.00,6,2,14,0.00
2013-1-24,27,18,10,21,12,1,94,75,38,0.00,40.00,7,2,12,0.00
2013-1-25,25,19,10,23,14,5,90,80,66,0.00,40.00,4,2,12,0.00
2013-1-26,32,27,18,30,22,14,97,80,58,0.00,40.00,6,2,8,0.00
2013-1-27,33,22,6,21,15,5,93,72,50,0.00,40.00,4,1,8,0.00
2013-1-28,51,41,29,50,39,21,100,94,62,0.00,40.00,9,4,12,0.00
2013-1-29,66,56,46,54,44,32,100,65,44,0.00,40.00,8,3,12,0.00
2013-1-30,67,59,38,57,50,32,94,77,56,0.00,40.00,16,7,32,0.00
2013-1-31,37,28,23,34,22,12,100,77,54,0.00,40.00,18,9,32,0.00
2013-2-1,25,18,12,23,11,5,88,71,58,0.00,40.00,11,7,24,0.00
2013-2-2,29,20,10,28,17,5,100,84,71,0.00,40.00,9,3,17,0.00
2013-2-3,29,24,18,28,21,12,99,86,75,0.00,40.00,11,4,15,0.00
2013-2-4,25,20,13,25,17,10,98,87,73,0.00,40.00,8,2,15,0.00
2013-2-5,31,29,27,28,26,21,99,86,67,0.00,40.00,7,2,10,0.00
2013-2-6,34,27,16,21,18,14,86,67,50,0.00,40.00,4,1,8,0.00
2013-2-7,47,31,15,30,23,14,91,72,46,0.00,40.00,6,2,8,0.00
2013-2-8,41,34,27,36,30,23,95,85,76,0.00,40.00,11,5,17,0.00
2013-2-9,41,31,21,27,24,19,86,73,49,0.00,40.00,5,2,17,0.00
2013-2-10,55,37,19,34,23,18,91,61,33,0.00,40.00,7,3,14,0.00
2013-2-11,59,49,40,46,37,28,94,67,36,0.00,40.00,22,9,26,0.00
2013-2-12,47,38,28,32,28,23,84,64,46,0.00,40.00,14,6,26,0.00
2013-2-13,41,31,25,32,28,21,97,85,68,0.00,40.00,143,2,14,0.00
2013-2-14,40,33,22,34,30,21,95,90,78,0.00,40.00,8,3,14,0.00
2013-2-15,38,32,26,32,27,21,93,79,58,0.00,40.00,8,2,17,0.00
2013-2-16,33,27,19,27,17,10,89,66,41,0.00,40.00,7,2,12,0.00
2013-2-17,30,22,15,23,14,9,88,71,53,0.00,40.00,9,4,14,0.00
2013-2-18,49,30,9,30,18,7,89,62,36,0.00,40.00,9,3,14,0.00
2013-2-19,53,37,23,39,30,16,97,75,45,0.00,40.00,17,9,24,0.00
2013-2-20,26,23,19,21,16,10,86,70,56,0.00,40.00,15,8,24,0.00
2013-2-21,32,24,20,23,18,14,89,74,56,0.00,40.00,7,2,17,0.00
2013-2-22,43,32,22,37,26,14,91,79,67,0.00,40.00,7,2,10,0.00
2013-2-23,44,36,28,34,30,23,91,77,53,0.00,40.00,6,2,10,0.00
2013-2-24,33,29,25,27,22,19,90,73,54,0.00,40.00,8,2,14,0.00
2013-2-25,45,34,23,28,22,19,88,62,34,0.00,40.00,6,1,14,0.00
2013-2-26,37,34,30,36,26,19,98,70,51,0.00,40.00,11,4,17,0.00
2013-2-27,41,38,33,36,33,28,94,87,78,0.00,40.00,10,6,15,0.00
2013-2-28,36,33,31,32,30,28,94,87,80,0.00,40.00,8,4,15,0.00
2013-3-1,32,30,26,28,25,21,86,78,67,0.00,40.00,6,3,10,0.00
2013-3-2,33,28,24,28,23,19,89,78,63,0.00,40.00,7,2,10,0.00
2013-3-3,31,28,24,28,22,14,91,76,60,0.00,40.00,8,3,10,5.66
2013-3-4,42,30,20,25,19,14,81,63,38,0.00,40.00,7,2,12,2.83
2013-3-5,48,35,23,30,20,12,89,56,25,0.00,40.00,11,3,17,0.00
2013-3-6,45,38,33,36,33,28,100,81,60,0.00,40.00,9,3,17,0.00
2013-3-7,44,37,32,34,31,28,93,79,63,0.00,40.00,7,3,10,0.00
2013-3-8,45,35,27,32,28,25,89,73,54,0.00,40.00,6,2,12,0.00
2013-3-9,60,41,22,32,28,21,97,64,28,0.00,40.00,6,2,12,0.00
2013-3-10,73,56,44,39,34,32,80,48,23,0.00,40.00,6,2,12,0.00
2013-3-11,64,57,47,50,38,30,97,54,31,0.00,40.00,14,5,21,0.00
2013-3-12,47,40,36,45,33,28,93,78,64,0.00,40.00,11,5,21,5.66
2013-3-13,38,34,29,34,28,19,97,76,55,0.00,40.00,12,6,17,0.00
2013-3-14,44,33,23,27,21,18,78,61,37,0.00,40.00,11,4,17,0.00
2013-3-15,53,40,25,39,30,21,88,68,47,0.00,40.00,11,4,17,2.83
2013-3-16,47,42,34,43,39,30,99,94,84,0.00,40.00,7,2,14,2.83
2013-3-17,38,34,31,30,28,25,86,74,62,0.00,40.00,4,2,10,0.00
2013-3-18,52,40,31,48,37,23,100,90,67,0.00,40.00,9,4,14,2.83
2013-3-19,48,37,31,46,27,18,95,67,45,0.00,40.00,16,9,24,0.00
2013-3-20,39,32,25,27,19,14,78,57,36,0.00,40.00,12,5,24,0.00
2013-3-21,32,26,19,27,17,9,81,65,47,0.00,40.00,9,5,19,0.00
2013-3-22,43,32,25,27,22,18,77,65,38,0.00,40.00,9,4,14,0.00
2013-3-23,49,35,21,30,23,19,94,64,31,0.00,40.00,7,2,12,5.66
2013-3-24,44,36,29,32,26,21,78,64,46,0.00,40.00,9,3,14,0.00
2013-3-25,39,37,33,37,34,30,100,94,77,0.00,40.00,6,2,14,8.49
2013-3-26,45,38,33,36,33,28,97,83,54,0.00,40.00,9,3,12,0.00
2013-3-27,45,39,34,34,29,23,89,67,44,0.00,40.00,12,5,19,2.83
2013-3-28,49,42,36,32,29,25,77,59,49,0.00,40.00,8,4,19,0.00
2013-3-29,55,42,32,32,28,21,89,59,28,0.00,40.00,11,2,15,0.00
2013-3-30,60,43,24,32,25,19,91,56,22,0.00,40.00,5,1,15,2.83
2013-3-31,54,46,39,46,37,-100,90,74,54,0.00,40.00,7,2,12,2.83
2013-4-1,51,42,34,45,26,12,82,54,28,0.00,40.00,11,5,14,2.83
2013-4-2,44,34,24,21,16,12,71,46,29,0.00,40.00,11,4,15,5.66
2013-4-3,43,34,23,23,16,10,80,51,27,0.00,40.00,11,3,17,0.00
2013-4-4,56,35,19,23,14,3,82,50,12,0.00,40.00,6,2,17,0.00
2013-4-8,76,72,67,52,46,41,53,40,33,0.00,40.00,13,7,19,2.83
2013-4-9,84,71,53,55,51,46,81,53,33,0.00,40.00,9,4,19,2.83
2013-4-10,79,70,61,66,57,50,99,68,47,0.00,40.00,11,3,14,0.00
2013-4-11,71,63,56,63,58,52,100,89,68,0.00,40.00,6,2,14,2.83
2013-4-12,62,54,46,61,47,32,100,81,62,0.00,40.00,14,6,15,0.00
2013-4-13,52,46,38,37,34,32,81,64,50,0.00,40.00,12,5,17,0.00
2013-4-14,67,49,30,43,34,30,99,62,31,0.00,40.00,6,1,17,2.83
2013-4-15,70,62,52,50,45,36,73,56,45,0.00,40.00,11,4,15,0.00
2013-4-16,81,66,58,61,54,46,99,69,46,0.00,40.00,12,5,17,2.83
2013-4-17,69,60,53,57,52,46,98,79,58,0.00,40.00,6,2,17,0.00
2013-4-18,88,73,55,59,55,50,97,61,31,0.00,40.00,14,6,19,0.00
2013-4-19,79,60,41,64,46,30,98,62,44,0.00,40.00,18,10,22,0.00
2013-4-20,51,42,36,34,28,23,81,58,40,0.00,40.00,16,7,22,2.83
2013-4-21,55,42,26,32,25,19,95,56,24,0.00,40.00,7,2,21,8.49
2013-4-22,68,52,36,36,30,23,73,46,27,0.00,40.00,7,3,12,2.83
2013-4-23,74,60,45,41,33,23,66,39,24,0.00,40.00,8,3,14,0.00
2013-4-24,65,56,38,59,46,34,99,75,40,0.00,40.00,13,4,15,0.00
2013-4-25,58,44,32,43,34,28,100,74,32,0.00,40.00,12,3,22,2.83
2013-4-26,64,48,33,45,32,25,100,63,24,0.00,40.00,5,1,22,2.83
2013-4-27,75,56,34,41,33,25,93,51,19,0.00,40.00,7,2,10,0.00
2013-4-28,64,56,47,61,49,-100,100,84,37,0.00,40.00,6,2,10,2.83
2013-4-29,66,60,56,61,56,54,100,91,68,0.00,40.00,6,2,10,2.83
2013-4-30,78,64,48,59,49,32,100,63,37,0.00,40.00,7,2,10,2.83
2013-5-1,80,68,56,55,51,41,85,57,33,0.00,40.00,7,3,10,5.66
2013-5-2,81,68,55,48,41,32,58,40,29,0.00,40.00,9,3,12,5.66
2013-5-3,81,68,55,46,37,32,58,35,20,0.00,40.00,10,5,14,0.00
2013-5-4,75,64,52,46,37,30,56,39,22,0.00,40.00,9,4,14,0.00
2013-5-5,77,65,53,43,33,23,60,35,15,0.00,40.00,11,4,14,0.00
2013-5-6,76,65,54,52,44,28,63,49,25,0.00,40.00,10,4,14,2.83
2013-5-7,71,64,59,59,54,50,91,73,58,0.00,40.00,7,2,14,5.66
2013-5-8,69,63,59,57,54,46,90,76,51,0.00,40.00,6,2,12,0.00
2013-5-15,87,79,69,60,57,52,69,48,31,0.00,40.00,15,4,27,0.00
2013-5-16,80,65,58,64,35,-100,97,65,25,0.00,40.00,6,2,11,2.20
2013-5-17,83,68,56,62,53,-100,97,70,32,0.00,40.00,6,2,9,0.00
2013-5-18,80,68,52,63,54,45,85,62,40,0.00,40.00,7,2,12,0.00
2013-5-19,81,71,60,64,62,59,95,74,53,0.00,40.00,7,3,13,0.00
2013-5-20,85,75,66,68,66,63,91,74,54,0.00,40.00,9,4,14,0.00
2013-5-21,86,76,66,68,65,60,96,71,43,0.00,40.00,11,3,21,0.00
2013-5-22,85,74,63,66,61,56,93,65,38,0.00,40.00,14,4,24,1.65
2013-5-23,76,66,46,64,57,41,93,76,50,0.00,40.00,14,5,22,0.00
2013-5-24,50,45,36,41,35,31,90,69,47,0.00,40.00,11,5,22,0.55
2013-5-25,36,34,33,33,33,32,95,94,91,0.00,40.00,1,0,2,0.00
2013-5-31,88,82,67,66,62,58,95,52,37,0.00,40.00,16,6,29,0.55
2013-6-1,84,75,65,67,65,64,97,73,53,0.00,40.00,14,5,24,0.00
2013-6-2,79,72,67,67,60,-100,94,70,44,0.00,40.00,14,5,25,0.55
2013-6-3,70,62,48,59,51,38,85,67,43,0.00,40.00,7,2,12,0.00
2013-6-4,75,59,40,52,43,38,94,61,31,0.00,40.00,7,1,12,0.00
2013-6-5,83,67,49,60,50,45,90,59,32,0.00,40.00,5,1,9,0.00
2013-6-6,72,67,60,67,29,-100,97,69,71,0.00,40.00,7,3,12,9.53
2013-6-7,65,60,57,58,27,-100,97,69,74,0.00,40.00,6,2,12,0.00
2013-6-8,76,64,56,58,54,50,95,73,44,0.00,40.00,6,2,12,0.00
2013-6-9,83,70,57,67,60,56,95,73,47,0.00,40.00,7,2,14,0.55
2013-6-10,75,69,61,69,45,-100,97,77,68,0.00,40.00,11,3,25,1.10
2013-6-11,81,70,60,67,9,-100,97,49,51,0.00,40.00,10,3,18,0.00
2013-6-12,84,74,63,74,58,-100,97,74,55,0.00,40.00,7,2,12,5.08
2013-6-13,73,68,63,69,38,-100,97,65,48,0.00,40.00,16,4,29,10.72
2013-6-14,75,64,54,58,54,-100,97,74,51,0.00,40.00,9,2,12,0.00
2013-6-15,79,64,49,61,39,-100,97,61,32,0.00,40.00,6,2,12,0.00
2013-6-16,77,69,62,67,50,-100,97,76,67,0.00,40.00,9,3,17,0.55
2013-6-17,85,72,64,68,15,-100,97,50,32,0.00,40.00,9,2,17,0.00
2013-6-18,81,70,63,68,8,-100,97,44,52,0.00,40.00,7,2,14,0.00
2013-6-19,78,65,53,53,49,42,91,59,29,0.00,40.00,6,2,12,0.00
2013-6-20,81,63,50,57,50,44,96,68,29,0.00,40.00,6,1,11,0.00
2013-6-22,81,76,72,67,67,66,85,74,59,0.00,40.00,5,2,7,0.00
2013-6-23,85,78,71,67,65,63,87,68,48,0.00,40.00,2,2,6,0.00
2013-6-24,88,82,66,67,64,62,95,56,41,0.00,40.00,7,4,14,0.00
2013-6-25,88,73,69,70,67,65,92,80,54,0.00,40.00,8,3,16,0.00
2013-6-26,83,74,66,70,17,-100,96,52,60,0.00,40.00,7,4,23,2.75
2013-6-27,81,71,67,72,-31,-100,95,34,62,0.00,40.00,6,2,11,12.85
2013-6-28,83,73,66,70,17,-100,97,53,50,0.00,40.00,10,3,27,0.55
2013-6-29,74,66,60,64,43,-100,97,75,69,0.00,40.00,5,1,9,1.10
2013-7-1,81,73,67,69,66,64,97,80,58,0.00,40.00,4,2,9,0.55
2013-7-2,83,73,65,69,4,-100,96,43,53,0.00,40.00,6,2,12,2.24
2013-7-3,85,76,68,72,41,-100,97,61,51,0.00,40.00,11,3,19,1.65
2013-7-4,73,70,68,71,-90,-100,94,6,93,0.00,40.00,5,1,7,2.20
2013-7-5,80,75,71,72,36,-100,97,66,65,0.00,40.00,6,2,11,0.00
2013-7-6,77,70,68,69,-75,-100,80,12,77,0.00,40.00,4,1,7,1.10
2013-7-7,74,73,73,69,69,68,87,86,83,0.00,40.00,5,3,9,0.00
2013-7-8,85,73,70,73,42,-100,97,65,54,0.00,40.00,10,4,15,5.07
2013-7-9,87,74,69,74,57,-100,97,80,61,0.00,40.00,12,3,24,3.34
2013-7-10,89,75,66,75,3,-100,97,44,61,0.00,40.00,9,4,17,5.08
2013-7-11,80,71,60,66,54,-100,97,70,45,0.00,40.00,7,2,12,0.00
2013-7-12,77,69,59,65,60,57,96,76,53,0.00,40.00,6,2,9,0.00
2013-7-13,77,66,61,65,54,-100,97,83,66,0.00,40.00,4,1,8,0.00
2013-7-14,85,80,71,67,66,65,89,64,55,0.00,40.00,7,4,14,0.00
2013-7-15,91,84,69,72,60,-100,91,56,42,0.00,40.00,5,2,9,0.00
2013-7-16,92,80,70,75,72,69,97,77,48,0.00,40.00,5,1,11,0.00
2013-7-17,93,82,72,75,40,-100,97,56,47,0.00,40.00,7,2,13,0.00
2013-7-18,93,82,72,75,73,70,97,76,47,0.00,40.00,7,2,10,0.00
2013-7-19,91,79,71,74,68,-100,97,76,49,0.00,40.00,9,3,22,0.00
2013-7-20,79,71,71,72,62,-100,96,82,66,0.00,40.00,4,2,8,0.00
2013-7-21,77,74,70,70,70,69,97,87,77,0.00,40.00,1,1,4,0.00
2013-7-22,75,72,69,73,23,-100,97,67,90,0.00,40.00,4,2,9,2.79
2013-7-23,83,71,65,71,19,-100,97,59,60,0.00,40.00,9,3,16,0.00
2013-7-24,75,66,60,65,25,-100,96,54,46,0.00,40.00,5,2,11,0.00
2013-7-25,78,66,51,56,52,50,97,65,38,0.00,40.00,5,2,11,0.00
2013-7-26,82,68,52,61,54,51,97,67,35,0.00,40.00,6,2,12,0.00
2013-7-27,70,63,61,65,62,60,97,94,83,0.00,40.00,4,1,6,0.55
2013-7-28,57,57,57,-100,-100,-100,0,0,100,0.00,40.00,0,0,1,0.00
2013-7-29,73,69,58,58,54,51,95,61,47,0.00,40.00,12,4,19,0.00
2013-7-30,80,68,53,61,43,-100,97,61,39,0.00,40.00,6,1,10,0.00
2013-7-31,77,68,58,67,62,58,97,84,61,0.00,40.00,4,1,9,0.55
2013-8-1,82,70,64,67,29,-100,97,61,42,0.00,40.00,6,2,16,0.00
2013-8-2,76,68,57,62,33,-100,97,57,42,0.00,40.00,9,3,15,0.00
2013-8-3,73,66,64,65,4,-100,97,56,66,0.00,40.00,7,2,11,4.48
2013-8-4,56,55,54,-100,-100,-100,0,0,100,0.00,40.00,0,0,2,0.00
2013-8-5,75,71,52,60,46,-100,96,52,40,0.00,40.00,6,2,9,0.00
2013-8-6,82,69,56,62,49,-100,97,64,36,0.00,40.00,6,2,12,0.00
2013-8-7,83,71,61,72,50,-100,97,76,61,0.00,40.00,6,2,17,0.00
2013-8-8,83,75,69,74,27,-100,97,62,68,0.00,40.00,6,2,10,0.00
2013-8-9,80,72,64,71,-10,-100,97,45,53,0.00,40.00,6,2,12,2.20
2013-9-17,46,46,46,-100,-100,-100,0,0,100,0.00,40.00,0,0,3,0.00
2013-9-19,71,70,68,65,64,62,88,80,72,0.00,40.00,4,2,7,0.00
2013-9-21,63,60,57,60,58,57,97,94,90,0.00,40.00,4,2,8,0.00
2013-9-22,60,46,51,47,25,-100,87,67,54,0.00,40.00,4,1,12,0.00
2013-9-23,59,57,52,48,44,42,86,61,53,0.00,40.00,3,2,6,0.00
2013-9-24,41,40,40,-100,-100,-100,0,0,100,0.00,40.00,1,0,2,0.00
2013-10-18,62,57,46,44,41,38,87,58,41,0.00,40.00,8,4,18,0.00
2013-10-19,55,46,40,49,42,39,97,85,67,0.00,40.00,11,4,19,1.10
2013-10-24,46,40,32,32,30,28,94,68,49,0.00,40.00,9,-34,22,0.00
2013-10-25,49,39,29,33,11,-100,97,59,43,0.00,40.00,9,3,16,0.00
2013-10-26,49,41,31,34,26,22,84,57,35,0.00,40.00,13,6,27,0.00
2013-10-27,55,40,29,35,6,-100,97,54,38,0.00,40.00,7,2,12,0.00
2013-10-28,60,42,28,36,12,-100,97,56,31,0.00,40.00,6,1,9,0.00
2013-11-6,41,41,41,35,35,35,79,79,79,0.00,40.00,2,2,3,0.00
2013-11-9,-200,0,200,-100,-100,-100,0,0,100,0.00,40.00,11,11,19,0.00
2013-11-10,42,42,42,28,28,28,56,56,56,0.00,40.00,1,1,4,0.00
2013-11-11,49,42,28,30,28,26,95,62,40,0.00,40.00,6,3,9,0.00
2013-11-12,31,29,27,27,24,22,84,83,82,0.00,40.00,2,1,9,0.00
2013-11-28,28,24,12,24,19,10,93,82,70,0.00,40.00,4,1,9,0.00
2013-11-29,37,28,20,25,22,20,97,80,55,0.00,40.00,4,1,6,0.00
2013-11-30,42,29,20,28,21,-100,96,75,51,0.00,40.00,7,2,11,0.00
2013-12-1,42,34,24,31,28,23,97,79,57,0.00,40.00,3,1,7,0.00
2013-12-2,43,37,32,35,33,31,95,84,66,0.00,40.00,3,1,7,0.00
2013-12-3,55,43,35,41,5,-100,97,60,55,0.00,40.00,4,1,8,0.00
2013-12-4,51,42,37,44,34,-100,97,86,74,0.00,40.00,1,1,5,0.00
2013-12-6,32,30,28,30,-50,-100,97,37,90,0.00,40.00,3,1,6,6.60
2013-12-7,28,23,15,27,14,-100,96,75,58,0.00,40.00,7,3,16,0.00
2013-12-8,28,23,14,24,18,12,94,83,65,0.00,40.00,6,2,11,2.20
2013-12-9,36,33,30,32,8,-100,89,65,70,0.00,40.00,12,7,19,0.00
2013-12-10,28,25,21,13,10,4,66,54,34,0.00,40.00,12,8,23,0.00
2013-12-11,31,24,17,21,14,11,81,67,52,0.00,40.00,10,5,17,0.00
2013-12-12,21,17,11,13,4,-5,81,56,33,0.00,40.00,11,5,21,0.00
2013-12-13,36,27,18,21,14,4,75,58,41,0.00,40.00,7,3,12,0.00
2013-12-14,37,32,28,34,-30,-100,97,45,68,0.00,40.00,4,1,9,4.95
2013-12-16,25,24,22,14,14,13,70,64,62,0.00,40.00,1,0,6,0.00
2013-12-17,30,30,30,23,22,22,73,72,71,0.00,40.00,6,4,9,0.00
2013-12-18,29,28,28,18,18,18,66,65,63,0.00,40.00,8,4,12,0.00
2014-1-1,38,30,26,25,22,18,80,71,58,0.00,40.00,2,1,7,0.00
2014-1-2,27,20,13,23,17,8,91,84,77,0.00,40.00,10,5,21,6.09